Home   Weather   Ruhengeri   Past weeks
Flag for Rwanda

Past Weather in Ruhengeri, Rwanda — Yesterday and Last 2 Weeks

Now
64 °F

Fog.


Feels Like: 64 °F
Forecast: 87 / 62 °F
Wind: 2 mph from North

Location: Kigali Airport

Current Time: Jan 22, 2019 at 8:19:43 am

Latest Report: Jan 22, 2019 at 7:30 am


Visibility: 4 mi

Pressure: 30.15 "Hg (24.29 "Hg at 1841m altitude)

Humidity: 88%

Dew Point: 61 °F

Location of RuhengeriLocation

Past Weather in Ruhengeri — Graph

°F

Ruhengeri Temperature Yesterday

Maximum temperature yesterday: 75 °F (at 2:30 pm)
Minimum temperature yesterday: 63 °F (at 12:00 am)
Average temperature yesterday: 67 °F

High & Low Weather Summary for the Past Weeks

 TemperatureHumidityPressure
High84 °F (Jan 11, 2:00 pm)100% (Jan 8, 5:00 am)30.24 "Hg (Jan 8, 5:00 am)
Low59 °F (Jan 16, 4:30 am)30% (Jan 13, 5:00 pm)29.95 "Hg (Jan 13, 4:30 pm)
Average69 °F74%30.12 "Hg
* Reported Jan 7 7:00 am — Jan 22 7:00 am, Ruhengeri. Weather by CustomWeather, © 2019

Note: Actual official high and low records may vary slightly from our data, if they occured in-between our weather recording intervals... More about our weather records

Advertising

Ruhengeri Weather History for the Previous 24 Hours

Scroll right to see more
 ConditionsComfort  
Time TempWeatherWind HumidityBarometerVisibility
7:00 am
Tue, Jan 22
61 °FScattered clouds.No wind94%30.15 "Hg4 mi
6:30 am61 °FFog.3 mph94%30.12 "Hg2 mi
6:00 am61 °FPassing clouds.2 mph94%30.12 "Hg4 mi
5:30 am61 °FFog.2 mph100%30.12 "Hg3 mi
5:00 am63 °FPartly cloudy.2 mph94%30.12 "Hg6 mi
4:30 am63 °FPartly cloudy.2 mph94%30.12 "Hg4 mi
4:00 am61 °FPartly cloudy.3 mph100%30.09 "Hg4 mi
3:00 am63 °FPartly cloudy.5 mph88%30.12 "Hg4 mi
2:30 am63 °FPartly cloudy.No wind94%30.12 "Hg6 mi
2:00 am63 °FPartly cloudy.No wind94%30.12 "Hg6 mi
1:30 am64 °FPartly cloudy.5 mph88%30.15 "HgN/A
1:00 am63 °FPartly cloudy.5 mph94%30.15 "HgN/A
12:30 am64 °FPassing clouds.2 mph83%30.15 "HgN/A
12:00 am63 °FPassing clouds.2 mph88%30.18 "HgN/A
11:30 pm
Mon, Jan 21
64 °FPassing clouds.2 mph83%30.18 "HgN/A
11:00 pm64 °FPassing clouds.3 mph83%30.18 "HgN/A
10:30 pm64 °FPassing clouds.6 mph83%30.18 "HgN/A
10:00 pm66 °FPassing clouds.5 mph78%30.18 "HgN/A
9:30 pm66 °FPartly cloudy.3 mph78%30.18 "HgN/A
9:00 pm66 °FPartly cloudy.2 mph78%30.18 "HgN/A
8:30 pm66 °FPartly cloudy.No wind78%30.15 "HgN/A
8:00 pm66 °FPartly cloudy.5 mph78%30.15 "HgN/A
7:30 pm68 °FPartly cloudy.6 mph69%30.12 "HgN/A
7:00 pm66 °FPassing clouds.7 mph73%30.12 "HgN/A
6:30 pm68 °FPassing clouds.8 mph69%30.09 "HgN/A
6:00 pm66 °FPartly sunny.6 mph73%30.09 "HgN/A
5:30 pm66 °FPartly sunny.9 mph78%30.09 "HgN/A
5:00 pm72 °FPartly sunny.16 mph53%30.09 "HgN/A
4:30 pm75 °FScattered clouds.5 mph61%30.09 "HgN/A
4:00 pm75 °FScattered clouds.5 mph61%30.07 "HgN/A
3:30 pm75 °FScattered clouds.6 mph61%30.07 "HgN/A
3:00 pm75 °FScattered clouds.6 mph69%30.09 "HgN/A
2:30 pm75 °FScattered clouds.7 mph69%30.09 "HgN/A
2:00 pm73 °FScattered clouds.8 mph65%30.12 "HgN/A
1:30 pm73 °FBroken clouds.8 mph74%30.15 "HgN/A
1:00 pm70 °FRain. Partly sunny.8 mph83%30.15 "Hg6 mi
12:30 pm70 °FPartly sunny.5 mph83%30.18 "Hg6 mi
12:00 pm70 °FPartly sunny.3 mph83%30.21 "Hg5 mi
11:30 am70 °FPartly sunny.2 mph83%30.21 "Hg5 mi
11:00 am68 °FPartly sunny.2 mph88%30.21 "Hg5 mi
10:30 am68 °FPartly sunny.2 mph83%30.21 "Hg5 mi
10:00 am68 °FPartly sunny.No wind83%30.21 "Hg4 mi
9:30 am66 °FPartly sunny.3 mph94%30.24 "Hg4 mi
9:00 am66 °FPartly sunny.7 mph94%30.24 "Hg4 mi
8:30 am66 °FBroken clouds.2 mph94%30.21 "Hg4 mi
8:00 am66 °FScattered clouds.No wind88%30.21 "Hg4 mi
Weather by CustomWeather, © 2019

See weather overview